Regional Weather Roundup
Issued by NWS Goodland, KS

Home | Current Version | Previous Version | Graphics & Text | Print | Product List | Glossary Off
Versions: 1 2 3 4 5 6 7 8 9 10 11 12 13 14 15 16 17 18 19 20 21 22 23 24 25 26 27 28 29 30 31 32 33 34 35 36 37 38 39 40 41 42 43 44 45 46 47 48 49 50

000
ASUS43 KGLD 171959
RWRGLD

GOODLAND FORECAST AREA HOURLY WEATHER ROUNDUP
NATIONAL WEATHER SERVICE GOODLAND KS
100 PM MST WED DEC 17 2014

...OFFICIAL OBSERVATIONS...

CITY           SKY/WX    TMP DP  RH WIND       PRES   REMARKS
GOODLAND KS    FOG       24  23  96 E8        30.01F VSB 1/4
HILL CITY KS   CLOUDY    28  22  78 E10       30.12F WCI  19
IMPERIAL NEB   CLOUDY    23  20  88 S7        30.05F
MCCOOK NEB     CLOUDY    23  21  92 E9        30.11F FOG
AKRON CO       CLOUDY    22  22 100 SE13      29.95F FOG     WCI  10
BURLINGTON CO  FOG       24  22  91 SE9       29.97F VSB 1/4
LIMON CO       CLOUDY    31  23  72 CALM      29.92F
$$

...UNOFFICIAL OBSERVATIONS...

CITY           SKY/WX    TMP DP  RH WIND       PRES   REMARKS
GOVE KS          N/A     29  32 100 MISG        N/A
SHARON SPRINGS   N/A     27  26  95 CALM        N/A
TRIBUNE KS     CLOUDY    34  32  93 NE7       29.99F
KIT CARSON CO    N/A     24  22  92 MISG        N/A
$$


USA.gov is the U.S. government's official web portal to all federal, state and local government web resources and services.